Regional Weather Roundup
Issued by NWS

Home | Current Version | Previous Version | Graphics & Text | Print | Product List | Glossary On
Versions: 1 2 3 4 5 6 7 8 9 10 11 12 13 14 15 16 17 18 19 20 21 22 23 24 25 26 27 28 29 30 31 32 33 34 35 36 37 38 39 40 41 42 43 44 45 46 47 48 49 50
000
ASUS43 KDMX 241201
RWRIA

WEATHER ROUNDUP FOR IOWA
NATIONAL WEATHER SERVICE DES MOINES IA
600 AM CST FRI NOV 24 2017

NOTE: "FAIR" INDICATES FEW OR NO CLOUDS BELOW 12,000 FEET WITH NO
SIGNIFICANT WEATHER AND/OR OBSTRUCTIONS TO VISIBILITY.

* - THESE STATIONS ARE NOT NWS STATIONS...THUS NOT UNDER NWS
QUALITY CONTROL.  THEY ALSO DO NOT REPORT WEATHER SUCH
AS PRECIPITATION OR FOG.

IAZ001>003-012>014-020>022-031>034-043>046-241300-
   NORTHWEST IOWA

CITY           SKY/WX    TMP DP  RH WIND       PRES   REMARKS
CARROLL *      CLEAR     50  39  66 SW23      29.50F
CHEROKEE *     CLEAR     39  36  87 S3        29.48F
DENISON *      CLEAR     46  39  76 S10G18    29.52F
LE MARS *      CLEAR     39  37  93 S6        29.47F WCI  35
ORANGE CITY *  CLEAR     41  37  87 S5        29.47S
SHELDON *      CLEAR     39  36  87 S8        29.45F WCI  34
SIOUX CITY     CLEAR     36  34  92 E9        29.49F WCI  29
6HR MIN TEMP:  36; 6HR MAX TEMP:  52;

SPENCER        CLEAR     41  36  82 SW8       29.47F
6HR MIN TEMP:  41; 6HR MAX TEMP:  52;

STORM LAKE *   CLEAR     46  39  76 SW12      29.49F
$$

IAZ055>058-069>071-079>083-090>094-241300-
   SOUTHWEST IOWA

CITY           SKY/WX    TMP DP  RH WIND       PRES   REMARKS
ATLANTIC *     CLEAR     48  39  71 S14       29.56F
AUDUBON *      CLEAR     50  39  66 S14       29.55F
CLARINDA *     CLEAR     46  37  71 S6          N/A
COUNCIL BLFS * CLEAR     50  41  71 SW14G20   29.55F
CRESTON *      CLEAR     46  37  71 S16       29.61F
HARLAN  *      CLEAR     45  39  81 S6        29.57F
LAMONI         CLEAR     50  36  58 S14       29.65F
6HR MIN TEMP:  49; 6HR MAX TEMP:  51;

RED OAK *      CLEAR     46  39  76 S13       29.58F
SHENANDOAH *   CLEAR     50  39  66 S10       29.60F
$$

IAZ047>049-059>061-072>074-084-241300-
   CENTRAL IOWA

CITY           SKY/WX    TMP DP  RH WIND       PRES   REMARKS
AMES           CLEAR     40  36  86 S6        29.56F
6HR MIN TEMP:  36; 6HR MAX TEMP:  45;

ANKENY *       CLEAR     52  37  58 S12G18    29.58F
BOONE *        CLEAR     52  37  58 SW13G21   29.54F
CHARITON *     CLEAR     50  36  57 S16G22    29.63F
DES MOINES     CLEAR     50  36  58 S15       29.58F
6HR MIN TEMP:  47; 6HR MAX TEMP:  52;

GRINNELL*      CLEAR     44  35  70 S13       29.62F
KNOXVILLE *    CLEAR     52  34  50 S16       29.60F
MARSHALLTOWN   CLEAR     47  36  65 S14       29.56F
6HR MIN TEMP:  45; 6HR MAX TEMP:  47;

NEWTON *       CLEAR     46  36  66 S10       29.60F
PELLA *        CLEAR     49  36  58 S6        29.64F
PERRY *          N/A     44  34  69 S7        29.55F
$$

IAZ004>006-015-016-023>025-035-036-241300-
   NORTH CENTRAL IOWA

CITY           SKY/WX    TMP DP  RH WIND       PRES   REMARKS
ALGONA *       CLEAR     41  39  93 S15       29.48F
CLARION *      CLEAR     41  39  93 S12       29.52F
ESTHERVILLE    CLEAR     36  34  92 S8        29.46F WCI  30
6HR MIN TEMP:  36; 6HR MAX TEMP:  50;

FORT DODGE *   CLEAR     44  37  76 S8        29.51F
MASON CITY     CLEAR     38  33  82 S10       29.52F WCI  31
6HR MIN TEMP:  37; 6HR MAX TEMP:  44;

FOREST CITY *    N/A     43  36  75 S7        29.50F
WEBSTER CITY * CLEAR     46  37  71 S12       29.51F
IOWA FALLS *     N/A     44  37  76 S12       29.56F
$$

IAZ007>011-017>019-026>030-037>042-050>054-066-241300-
   NORTHEAST IOWA

CITY           SKY/WX    TMP DP  RH WIND       PRES   REMARKS
CEDAR RAPIDS   CLEAR     44  34  67 S15       29.63F
6HR MIN TEMP:  35; 6HR MAX TEMP:  44;

CHARLES CITY * CLEAR     41  36  81 S13       29.55F
CLINTON *      CLEAR     37  31  78 S8        29.71F WCI  31
DECORAH *      CLEAR     46  36  66 S12G23    29.53F
DUBUQUE        CLEAR     35  30  82 S14       29.64F WCI  26
6HR MIN TEMP:  33; 6HR MAX TEMP:  36;

MONTICELLO *   CLEAR     39  32  75 S10       29.63F WCI  32
OELWEIN *      CLEAR     41  37  87 S12       29.58F
WATERLOO       CLEAR     44  34  67 S10       29.57F
6HR MIN TEMP:  40; 6HR MAX TEMP:  44;

$$

IAZ064-065-067-068-078-241300-
   EAST CENTRAL IOWA

CITY           SKY/WX    TMP DP  RH WIND       PRES   REMARKS
DAVENPORT      CLEAR     42  32  67 S13       29.72F
6HR MIN TEMP:  33; 6HR MAX TEMP:  42;

IOWA CITY      CLEAR     38  31  76 S7        29.68F WCI  33
6HR MIN TEMP:  29; 6HR MAX TEMP:  38;

MT. PLEASANT * CLEAR     41  32  71 S13G18    29.71F
MUSCATINE *    CLEAR     30  27  86 CALM      29.71F
QUAD CITIES    CLEAR     44  32  62 S6        29.70F
6HR MIN TEMP:  36; 6HR MAX TEMP:  44;

$$

IAZ062-063-075>077-085>089-095>099-241300-
   SOUTHEAST IOWA

CITY           SKY/WX    TMP DP  RH WIND       PRES   REMARKS
BURLINGTON     CLEAR     40  33  76 S9        29.73F WCI  34
6HR MIN TEMP:  34; 6HR MAX TEMP:  40;

FAIRFIELD *    CLEAR     45  34  65 S14       29.67F
FORT MADISON * CLEAR     43  34  70 S10       29.74F
KEOKUK *       CLEAR     43  34  70 S10       29.74F
OSKALOOSA *      N/A     42  35  75 S10       29.65F
OTTUMWA        CLEAR     46  35  65 S14       29.65F
6HR MIN TEMP:  40; 6HR MAX TEMP:  46;

WASHINGTON *   CLEAR     43  36  75 S14       29.68F
$$

ABBREVIATIONS USED IN REMARKS
   TC - TEMPERATURES IN CELSIUS
  WCI - WIND CHILL INDEX
   HX - HEAT INDEX
  VSB - VISIBILITY
$$





USA.gov is the U.S. government's official web portal to all federal, state and local government web resources and services.